Location: *
(43.4667°N, 11.6833°E)
Time: 20:54:45
(UTC+00:00)

Cosmos 1733 Rocket - Pass Details

Date: 19 July 2019
Orbit: 603 x 629 km, 82.5° (Epoch: 25 August)

Event Time Altitude Azimuth Distance (km) Brightness Sun altitude
Exits shadow 23:54:21 77° 13° (NNE) 644 3.1 -25.3°
Drops below altitude 10° 23:58:27 10° 9° (N) 1,992 6.7 -25.2°
Sets 00:00:40 0° 9° (N) 2,898 7.9 -25.1°
